This is the latest recevied weather packets stored in our database for station/object YD2CLX-11. If no packets are shown the sender has not sent any weather packets the latest 10 day(s).
| Time | Temp. | Humidity | Pressure | Rain* | Wind** | Luminosity | Snow |
|---|---|---|---|---|---|---|---|
| 1788563650 | 26.67° C | 76% | 1001.9 hPa | - | - | - | - |
| 1788562448 | 23.89° C | 84% | 1002 hPa | - | - | - | - |
| 1788561847 | 22.78° C | 86% | 1001.8 hPa | - | - | - | - |
| 1788561246 | 22.22° C | 87% | 1001.7 hPa | - | - | - | - |
| 1788560645 | 22.22° C | 87% | 1001.7 hPa | - | - | - | - |
| 1788560043 | 22.22° C | 87% | 1001.6 hPa | - | - | - | - |
| 1788559442 | 22.22° C | 86% | 1001.4 hPa | - | - | - | - |
| 1788558841 | 22.22° C | 86% | 1001.2 hPa | - | - | - | - |
| 1788558240 | 22.78° C | 86% | 1001.2 hPa | - | - | - | - |
| 1788557639 | 22.22° C | 86% | 1001.1 hPa | - | - | - | - |
| 1788557038 | 22.22° C | 86% | 1001 hPa | - | - | - | - |
| 1788556437 | 22.22° C | 86% | 1000.8 hPa | - | - | - | - |
| 1788555836 | 22.22° C | 86% | 1000.7 hPa | - | - | - | - |
| 1788555235 | 22.78° C | 86% | 1000.7 hPa | - | - | - | - |
| 1788554634 | 22.78° C | 86% | 1000.5 hPa | - | - | - | - |
| 1788554033 | 22.78° C | 86% | 1000.5 hPa | - | - | - | - |
| 1788553432 | 22.78° C | 86% | 1000.4 hPa | - | - | - | - |
| 1788552831 | 22.78° C | 86% | 1000.4 hPa | - | - | - | - |
| 1788552230 | 22.78° C | 86% | 1000.2 hPa | - | - | - | - |
| 1788551629 | 22.78° C | 86% | 1000 hPa | - | - | - | - |
| 1788551028 | 22.78° C | 85% | 1000.1 hPa | - | - | - | - |
| 1788550427 | 22.78° C | 85% | 1000.2 hPa | - | - | - | - |
| 1788549826 | 22.78° C | 85% | 1000 hPa | - | - | - | - |
| 1788549225 | 23.33° C | 85% | 1000 hPa | - | - | - | - |
| 1788548624 | 23.33° C | 85% | 999.9 hPa | - | - | - | - |
* Rain since midnight (hover to see other rain measurements)
** Current wind speed in m/s (hover to see current wind gust speed)